Date,TemperatureHighF,TemperatureAvgF,TemperatureLowF,DewpointHighF,DewpointAvgF,DewpointLowF,HumidityHigh,HumidityAvg,HumidityLow,PressureMaxIn,PressureMinIn,WindSpeedMaxMPH,WindSpeedAvgMPH,GustSpeedMaxMPH,PrecipitationSumIn
2013-12-1,70.6,60.9,55.2,61.8,57.6,53.8,98,89,72,30.23,29.99,3,0,7,0.00
2013-12-2,79.6,64.7,56.5,60.6,57.2,53.6,95,79,48,29.99,29.71,3,1,5,0.00
2013-12-3,83.4,64.9,55.9,60.9,52.8,47.2,92,69,29,29.75,29.64,2,0,5,0.00
2013-12-4,74.5,61.8,53.1,66.8,59.4,50.8,99,92,75,29.82,29.70,1,0,2,0.00
2013-12-5,66.5,47.6,33.4,66.2,43.5,28.7,100,85,71,30.10,29.81,8,3,12,0.01
2013-12-6,39.0,33.0,29.1,33.0,29.0,23.7,95,85,75,30.48,30.07,6,4,12,0.03
2013-12-7,32.6,29.2,26.3,26.2,23.5,20.1,89,79,72,30.51,30.34,6,3,9,0.00
2013-12-8,50.0,37.6,28.5,42.4,33.9,26.0,94,87,73,30.35,30.09,2,0,4,0.00
2013-12-9,41.8,39.5,34.3,40.6,38.3,31.7,98,96,90,30.42,30.12,6,2,12,0.05
2013-12-10,48.0,35.7,26.7,31.7,27.1,23.9,96,73,41,30.57,30.40,6,2,10,0.00
2013-12-11,53.6,39.1,27.8,35.9,31.9,24.8,90,76,51,30.59,30.40,2,0,4,0.00
2013-12-12,51.2,42.2,34.9,38.2,34.0,29.4,81,73,59,30.65,30.37,2,1,6,0.00
2013-12-13,49.9,46.7,43.3,49.4,42.8,36.2,98,87,74,30.38,29.94,2,0,3,0.03
2013-12-14,56.7,48.3,42.4,48.2,40.5,30.5,99,76,55,30.38,29.95,7,3,13,0.01
2013-12-15,64.1,44.2,31.4,36.5,31.3,27.0,86,63,34,30.46,30.32,3,1,6,0.00
2013-12-16,67.2,46.0,31.7,37.6,32.8,28.8,90,64,31,30.39,30.25,3,0,7,0.00
2013-12-17,70.2,50.1,36.6,46.1,39.3,33.8,96,70,33,30.39,30.27,2,0,3,0.00
2013-12-18,69.8,54.6,41.3,55.8,48.2,37.0,98,81,51,30.34,30.10,2,0,6,0.00
2013-12-19,75.3,63.6,54.9,63.0,58.9,51.5,96,85,64,30.10,29.82,3,1,8,0.00
2013-12-20,73.3,67.4,62.0,67.2,64.6,60.8,97,91,79,29.87,29.62,3,0,6,0.00
2013-12-21,70.9,61.3,44.5,67.2,54.2,40.1,99,81,34,29.86,29.54,6,1,11,0.46
2013-12-22,56.1,47.0,39.5,44.8,38.7,30.5,94,74,53,30.40,29.87,5,2,12,0.00
2013-12-23,58.1,41.8,30.9,33.3,29.4,25.0,87,65,33,30.59,30.40,3,1,6,0.00
2013-12-24,59.4,41.5,28.9,35.8,30.2,26.8,94,68,30,30.59,30.33,2,0,6,0.00
2013-12-25,55.7,46.8,36.3,49.1,43.1,32.0,97,87,77,30.43,30.29,2,0,4,0.00
2013-12-26,51.5,46.7,42.7,45.5,40.9,36.4,96,80,71,30.48,30.36,4,1,7,0.01
2013-12-27,54.5,47.2,42.7,48.1,45.0,41.1,97,92,71,30.48,30.37,2,0,4,0.26
2013-12-28,56.7,48.5,41.1,48.9,44.4,39.6,97,86,65,30.36,30.08,1,0,5,0.02
2013-12-29,62.2,47.8,35.6,52.7,43.8,31.3,99,87,69,30.30,30.03,7,2,10,0.01
2013-12-30,42.8,37.6,34.5,32.7,29.5,25.9,85,73,59,30.46,30.26,5,2,9,0.00
2013-12-31,51.3,40.5,34.4,32.8,31.4,28.8,88,72,45,30.52,30.31,2,0,4,0.00